Weather History for Lincoln, NE

Change the Weather History Date:

Sunday, August 24, 2014

  Actual Average Record
Temperature  
Mean Temperature 81 °F 74 °F  
Max Temperature 91 °F 86 °F 107 °F (1936)
Min Temperature 70 °F 63 °F 43 °F (1891)
Degree Days  
Heating Degree Days 0 0  
Month to date heating degree days 0 0  
Since 1 June heating degree days 4 17  
Since 1 July heating degree days 2 1  
Cooling Degree Days 16 9  
Month to date cooling degree days 287 265  
Year to date cooling degree days 1046 976  
Since 1 June cooling degree days 886 897  
Growing Degree Days 30 (Base 50)    
Moisture  
Dew Point 63 °F    
Average Humidity 62    
Maximum Humidity 79    
Minimum Humidity 44    
Precipitation  
Precipitation 0.00 in 0.12 in 1.90 in (1982)
Month to date precipitation 2.07 2.67  
Year to date precipitation 18.23 20.76  
Snow  
Snow 0.00 in 0.00 in - ()
Month to date snowfall 0.0 0.0  
Since 1 July snowfall 0.0 0.0  
Snow Depth 0.00 in    
Sea Level Pressure  
Sea Level Pressure 29.80 in    
Wind  
Wind Speed 8 mph (WSW)    
Max Wind Speed 20 mph    
Max Gust Speed 27 mph    
Visibility 10 miles    
Events Thunderstorm    
T = Trace of Precipitation, MM = Missing Value Source: NWS Daily Summary

Daily Weather History Graph

Daily Weather History Graph

Search for Another Location

Airport:

Trip Planner

Search our weather history database for the weather conditions in past years. The results will help you decide how hot, cold, wet, or windy it might be!

Date:

Astronomy

Aug. 24, 2014 Rise Set
Actual Time 6:46 AM CDT 8:11 PM CDT
Civil Twilight 6:17 AM CDT 8:40 PM CDT
Nautical Twilight 5:42 AM CDT 9:15 PM CDT
Astronomical Twilight 5:06 AM CDT 9:51 PM CDT
Moon 5:57 AM CDT (8/24) 7:30 PM CDT (8/24)
Length of Visible Light 14h 23m
Length of Day
13h 25m
Waning Crescent, 1% of the Moon is Illuminated
Aug 24
Waning Crescent
Aug 25
New
Sep 2
First Quarter
Sep 8
Full
Sep 15
Last Quarter

Hourly Weather History & Observations

Time (CDT) Temp. Heat Index Dew Point Humidity Pressure Visibility Wind Dir Wind Speed Gust Speed Precip Events Conditions
12:54 AM 81.0 °F 81.3 °F 59.0 °F 47% 29.74 in 10.0 mi South 11.5 mph - N/A   Clear
1:54 AM 80.1 °F 80.7 °F 59.0 °F 48% 29.73 in 10.0 mi South 13.8 mph - N/A   Clear
2:54 AM 81.0 °F 81.3 °F 59.0 °F 47% 29.73 in 10.0 mi South 16.1 mph - N/A   Partly Cloudy
3:36 AM 79.0 °F - 60.1 °F 52% 29.79 in 10.0 mi South 12.7 mph 27.6 mph N/A   Scattered Clouds
3:54 AM 79.0 °F - 60.1 °F 52% 29.78 in 10.0 mi West 15.0 mph - N/A   Partly Cloudy
4:13 AM 77.0 °F - 60.1 °F 56% 29.82 in 10.0 mi SSW 4.6 mph - N/A Thunderstorm Partly Cloudy
4:28 AM 75.0 °F - 61.0 °F 62% 29.82 in 10.0 mi South 3.5 mph - N/A   Partly Cloudy
4:54 AM 75.0 °F - 61.0 °F 62% 29.77 in 10.0 mi SSE 6.9 mph - N/A   Partly Cloudy
5:54 AM 70.0 °F - 62.1 °F 76% 29.77 in 10.0 mi SSE 9.2 mph - N/A   Clear
6:54 AM 71.1 °F - 62.1 °F 73% 29.78 in 9.0 mi SSE 9.2 mph - N/A   Clear
7:54 AM 73.9 °F - 63.0 °F 68% 29.78 in 9.0 mi South 10.4 mph - N/A   Clear
8:54 AM 79.0 °F - 63.0 °F 58% 29.79 in 10.0 mi South 9.2 mph - N/A   Clear
9:54 AM 84.0 °F 84.5 °F 62.1 °F 47% 29.80 in 10.0 mi WSW 12.7 mph - N/A   Clear
10:54 AM 84.0 °F 85.4 °F 64.0 °F 51% 29.82 in 10.0 mi WNW 6.9 mph - N/A   Clear
11:54 AM 86.0 °F 87.3 °F 64.0 °F 48% 29.83 in 10.0 mi West 4.6 mph - N/A   Clear
12:54 PM 86.0 °F 87.3 °F 64.0 °F 48% 29.82 in 10.0 mi Calm Calm - N/A   Clear
1:54 PM 88.0 °F 90.3 °F 66.0 °F 48% 29.83 in 10.0 mi NW 9.2 mph - N/A   Clear
2:54 PM 89.1 °F 90.3 °F 64.0 °F 43% 29.81 in 10.0 mi Variable 3.5 mph - N/A   Clear
3:54 PM 90.0 °F 91.7 °F 64.9 °F 43% 29.81 in 10.0 mi NNW 11.5 mph - N/A   Clear
4:54 PM 89.1 °F 91.0 °F 64.9 °F 45% 29.81 in 10.0 mi NNW 10.4 mph - N/A   Clear
5:54 PM 88.0 °F 89.3 °F 64.0 °F 45% 29.82 in 10.0 mi NNW 12.7 mph - N/A   Clear
6:54 PM 84.9 °F 86.6 °F 64.9 °F 51% 29.81 in 10.0 mi North 10.4 mph - N/A   Clear
7:54 PM 80.1 °F 82.1 °F 66.0 °F 62% 29.83 in 10.0 mi NNE 9.2 mph - N/A   Clear
8:54 PM 75.9 °F - 64.9 °F 69% 29.84 in 10.0 mi North 6.9 mph - N/A   Clear
9:54 PM 73.9 °F - 64.9 °F 73% 29.87 in 10.0 mi North 4.6 mph - N/A   Clear
10:54 PM 75.0 °F - 63.0 °F 66% 29.88 in 10.0 mi North 3.5 mph - N/A   Clear